[[{"header":{"parameterUnit":"m.s-1","parameterCategory":1,"la1":30.2991,"la2":30.254,"lo1":-89.0895,"lo2":-89.0444,"dy":0.0017,"dx":0.0017,"nx":28,"ny":28,"refTime":"2023-08-31T03:00:00:Z","depth":0,"parameterNumber":2,"parameterNumberName":"U-component_of_WINDS"},"data":[0,0,0,0,0,0,0,0,0,0,0,0,0,0,0,0,0,0,0,0,0,0,0,0,0,0,0,0,0,0,0,0,0,0,0,0,0,0,0,0,0,0,0,0,0,0,0,0,0,0,0,0,0,0,0,0,0,0,-1.8989,-1.899,0,-1.9028,-1.9029,-1.9029,-1.9038,-1.9038,-1.9037,-1.9037,-1.9077,-1.9078,-1.908,0,0,0,0,0,0,0,0,0,0,0,0,0,-1.8921,-1.8922,-1.8989,-1.899,-1.899,-1.9028,-1.9029,-1.9029,-1.9038,-1.9038,-1.9037,-1.9037,-1.9077,-1.9078,-1.908,0,0,0,0,0,0,0,0,0,0,0,0,0,-1.8954,-1.8923,-1.8989,-1.8999,-1.9,-1.9028,-1.9029,-1.9029,-1.9038,-1.9038,-1.9037,-1.9037,-1.9076,-1.9078,-1.908,-1.91,0,0,-1.9086,-1.9087,0,0,0,0,0,0,0,0,-1.8952,-1.8957,-1.8997,-1.8998,-1.9,-1.9028,-1.9019,-1.9053,-1.9038,-1.9024,-1.9037,-1.9037,-1.9061,-1.9064,-1.9072,-1.9102,-1.9104,-1.9086,-1.9087,-1.9088,-1.9089,0,0,0,0,0,0,0,-1.895,-1.8955,-1.9005,-1.8998,-1.8999,-1.9001,-1.9006,-1.9026,-1.9044,-1.9025,-1.9026,-1.903,-1.9062,-1.907,-1.9073,-1.9104,-1.9086,-1.9088,-1.9089,-1.909,-1.9151,-1.9152,0,0,0,0,0,0,-1.8946,-1.8953,-1.9003,-1.9006,-1.8975,-1.9003,-1.9008,-1.9019,-1.9044,-1.9047,-1.9031,-1.9031,-1.9067,-1.9071,-1.9075,-1.9099,-1.9088,-1.909,-1.9091,-1.9151,-1.9151,-1.9152,0,0,0,0,0,0,-1.8945,-1.895,-1.9002,-1.898,-1.8986,-1.9004,-1.9017,-1.902,-1.9029,-1.9048,-1.9051,-1.9036,-1.9067,-1.9072,-1.9094,-1.9101,-1.9091,-1.9093,-1.915,-1.9151,-1.9152,-1.9149,0,0,0,0,0,0,-1.8943,-1.895,-1.8958,-1.898,-1.8987,-1.902,-1.9018,-1.9021,-1.9032,-1.9033,-1.9054,-1.9058,-1.9067,-1.9091,-1.9095,-1.9103,-1.9094,-1.915,-1.9151,-1.9151,-1.9149,-1.915,-1.9151,0,0,0,0,0,-1.894,-1.8956,-1.8959,-1.8965,-1.8998,-1.9021,-1.9025,-1.9036,-1.9033,-1.9041,-1.9053,-1.9057,-1.9099,-1.9093,-1.9098,-1.9107,-1.9149,-1.915,-1.9151,-1.9148,-1.9149,-1.915,0,0,0,0,0,0,-1.8935,-1.8959,-1.8962,-1.8986,-1.9001,-1.9022,-1.9033,-1.9037,-1.9053,-1.9053,-1.9066,-1.907,-1.9091,-1.9101,-1.9093,-1.9127,-1.9124,-1.9126,-1.912,-1.9121,-1.9122,-1.9119,-1.9096,0,0,0,0,0,-1.8937,-1.8953,-1.8973,-1.8992,-1.9,-1.9015,-1.9025,-1.9032,-1.9048,-1.9055,-1.9069,-1.9084,-1.9101,-1.9112,-1.9128,-1.915,-1.9154,-1.9159,-1.916,-1.916,-1.9162,-1.9173,-1.9175,-1.9155,-1.9155,-1.9155,0,0,-1.8941,-1.8956,-1.8965,-1.8991,-1.9004,-1.902,-1.902,-1.9038,-1.905,-1.9057,-1.9078,-1.9089,-1.9107,-1.9128,-1.9139,-1.9138,-1.9168,-1.9162,-1.9162,-1.9163,-1.9174,-1.9176,-1.9178,-1.9156,-1.9156,-1.9156,0,0,-1.8955,-1.8969,-1.8985,-1.8998,-1.9017,-1.9027,-1.903,-1.9051,-1.9058,-1.9079,-1.9085,-1.9099,-1.9128,-1.914,-1.915,-1.9168,-1.9172,-1.9173,-1.9178,-1.9189,-1.919,-1.9192,-1.9197,-1.9199,-1.9175,-1.9175,-1.9175,0,-1.8958,-1.8983,-1.8993,-1.901,-1.9021,-1.9028,-1.9045,-1.9056,-1.908,-1.9087,-1.9086,-1.9121,-1.9134,-1.9158,-1.9162,-1.917,-1.9174,-1.9171,-1.9189,-1.9191,-1.9192,-1.9198,-1.92,-1.9175,-1.9175,-1.9175,-1.9175,0,-1.8984,-1.9001,-1.9012,-1.9034,-1.9046,-1.9063,-1.9075,-1.9086,-1.9092,-1.9101,-1.9122,-1.9138,-1.9157,-1.9163,-1.9169,-1.9188,-1.9186,-1.9187,-1.9184,-1.9194,-1.9199,-1.9202,-1.9175,-1.9175,-1.9175,-1.9175,0,0,-1.8997,-1.9024,-1.9028,-1.9038,-1.9058,-1.9072,-1.9088,-1.9107,-1.9115,-1.9131,-1.9145,-1.9168,-1.9168,-1.918,-1.9187,-1.9196,-1.9208,-1.9196,-1.9196,-1.9197,-1.9229,-1.9228,-1.923,-1.9211,-1.9211,-1.9212,-1.9227,0,-1.9014,-1.9044,-1.9054,-1.9078,-1.9094,-1.91,-1.9114,-1.9128,-1.9137,-1.9151,-1.9161,-1.9178,-1.9177,-1.9184,-1.9194,-1.9205,-1.9215,-1.9204,-1.9223,-1.9223,-1.9218,-1.9233,-1.9233,-1.9247,-1.9229,-1.923,-1.923,0,-1.9038,-1.9054,-1.908,-1.9097,-1.9104,-1.9117,-1.9134,-1.9147,-1.9163,-1.9169,-1.9181,-1.9187,-1.9203,-1.9199,-1.9222,-1.9214,-1.9223,-1.9229,-1.923,-1.9232,-1.9227,-1.9235,-1.9251,-1.9253,-1.9233,-1.9233,-1.9233,0,-1.9045,-1.9072,-1.9091,-1.9099,-1.912,-1.9129,-1.9138,-1.9153,-1.9163,-1.9178,-1.9185,-1.9201,-1.921,-1.9223,-1.9233,-1.9229,-1.9254,-1.9251,-1.9259,-1.9259,-1.9264,-1.9264,-1.9281,-1.927,-1.927,-1.927,-1.927,0,-1.9063,-1.9078,-1.9094,-1.9105,-1.9123,-1.9133,-1.915,-1.9159,-1.9172,-1.9185,-1.9192,-1.9204,-1.9217,-1.923,-1.9238,-1.9255,-1.9259,-1.9264,-1.9266,-1.9263,-1.9262,-1.9269,-1.9268,-1.927,-1.927,-1.927,-1.927,0,-1.9073,-1.9084,-1.9105,-1.9123,-1.9128,-1.914,-1.9155,-1.9166,-1.9175,-1.9191,-1.9196,-1.921,-1.9226,-1.9237,-1.9258,-1.9263,-1.9281,-1.9283,-1.9276,-1.9277,-1.9284,-1.9283,-1.9306,-1.9309,-1.9296,-1.9296,-1.9296,0,-1.9084,-1.9096,-1.9115,-1.9124,-1.9133,-1.9148,-1.9158,-1.9168,-1.9178,-1.9196,-1.9205,-1.9221,-1.9235,-1.926,-1.9272,-1.9287,-1.929,-1.9297,-1.9292,-1.9289,-1.9289,-1.9288,-1.9289,-1.9297,-1.9297,-1.9297,-1.9298,0,-1.9101,-1.9106,-1.912,-1.9136,-1.9148,-1.9161,-1.9174,-1.9181,-1.9194,-1.9205,-1.9221,-1.9231,-1.9252,-1.9268,-1.9284,-1.9293,-1.9297,-1.9299,-1.9301,-1.9299,-1.9294,-1.9296,-1.9277,-1.9298,-1.9298,-1.9298,-1.9298,-1.9298,-1.9112,-1.9122,-1.9137,-1.9152,-1.9163,-1.9175,-1.9186,-1.9196,-1.9209,-1.9227,-1.9232,-1.9249,-1.9263,-1.9285,-1.9294,-1.9307,-1.9307,-1.9311,-1.9311,-1.9312,-1.9312,-1.9292,-1.931,-1.931,-1.931,-1.931,-1.931,0,-1.9129,-1.9138,-1.9152,-1.917,-1.9182,-1.9184,-1.9199,-1.9208,-1.9223,-1.9236,-1.9249,-1.9267,-1.9282,-1.9294,-1.931,-1.9318,-1.932,-1.9321,-1.9321,-1.9323,-1.9312,-1.9308,-1.9319,-1.9319,-1.9319,-1.9319,-1.9319,-1.9319,-1.9139,-1.9157,-1.9163,-1.9185,-1.9194,-1.9211,-1.9219,-1.9229,-1.9239,-1.9259,-1.9272,-1.928,-1.9292,-1.9308,-1.9322,-1.9325,-1.933,-1.9331,-1.9335,-1.9325,-1.9324,-1.9323,-1.9319,-1.9333,-1.9333,-1.9345,-1.9345,-1.9345]},{"header":{"parameterUnit":"m.s-1","parameterCategory":1,"la1":30.2991,"la2":30.254,"lo1":-89.0895,"lo2":-89.0444,"dy":0.0017,"dx":0.0017,"nx":28,"ny":28,"refTime":"2023-08-31T03:00:00:Z","depth":0,"parameterNumber":3,"parameterNumberName":"V-component_of_WINDS"},"data":[0,0,0,0,0,0,0,0,0,0,0,0,0,0,0,0,0,0,0,0,0,0,0,0,0,0,0,0,0,0,0,0,0,0,0,0,0,0,0,0,0,0,0,0,0,0,0,0,0,0,0,0,0,0,0,0,0,0,2.2571,2.2569,0,2.2422,2.2421,2.2419,2.2282,2.2281,2.2279,2.2278,2.2119,2.2117,2.2114,0,0,0,0,0,0,0,0,0,0,0,0,0,2.2731,2.2729,2.2571,2.2569,2.2568,2.2423,2.2421,2.2419,2.2283,2.2281,2.2279,2.2277,2.212,2.2117,2.2114,0,0,0,0,0,0,0,0,0,0,0,0,0,2.263,2.2728,2.2572,2.2482,2.2473,2.2423,2.2421,2.2418,2.2283,2.2281,2.2278,2.2276,2.2121,2.2117,2.2113,2.2138,0,0,2.2101,2.2099,0,0,0,0,0,0,0,0,2.2636,2.2624,2.2497,2.2488,2.2478,2.2369,2.2419,2.2324,2.2284,2.2355,2.2278,2.2275,2.2204,2.2193,2.217,2.213,2.2123,2.2101,2.2098,2.2096,2.2095,0,0,0,0,0,0,0,2.2643,2.263,2.2512,2.2496,2.2484,2.2448,2.2431,2.24,2.2295,2.2349,2.2338,2.2323,2.2198,2.2174,2.2165,2.2121,2.2101,2.2097,2.2095,2.2093,2.2092,2.2094,0,0,0,0,0,0,2.2665,2.2637,2.2517,2.2508,2.2553,2.2447,2.2428,2.2406,2.2295,2.2276,2.2325,2.2317,2.2182,2.217,2.2159,2.2179,2.2096,2.2093,2.209,2.209,2.2092,2.2095,0,0,0,0,0,0,2.2669,2.2655,2.2523,2.2569,2.255,2.2447,2.2423,2.2404,2.2381,2.2277,2.2257,2.2321,2.218,2.2165,2.2144,2.2172,2.2091,2.2087,2.2087,2.209,2.2094,2.2221,0,0,0,0,0,0,2.2674,2.2658,2.2667,2.2571,2.2548,2.2513,2.2425,2.2403,2.2375,2.2363,2.2268,2.225,2.2177,2.2151,2.214,2.2165,2.2084,2.2084,2.2088,2.2093,2.2214,2.2228,2.2241,0,0,0,0,0,2.268,2.2708,2.2669,2.2655,2.2558,2.2514,2.2501,2.2419,2.2378,2.2385,2.2319,2.2253,2.2171,2.215,2.2137,2.2161,2.2081,2.2087,2.2092,2.2208,2.2225,2.2241,0,0,0,0,0,0,2.2809,2.2694,2.2649,2.2647,2.2592,2.2492,2.2499,2.244,2.2394,2.2385,2.2282,2.2262,2.2252,2.2204,2.2183,2.2177,2.2117,2.212,2.2209,2.2225,2.2239,2.225,2.2081,0,0,0,0,0,2.2837,2.2813,2.2713,2.2721,2.2696,2.2603,2.2581,2.2522,2.246,2.2435,2.2367,2.2308,2.2268,2.2244,2.2202,2.2206,2.2182,2.2216,2.223,2.2242,2.2245,2.2242,2.2255,2.2113,2.2113,2.2112,0,0,2.2895,2.2829,2.282,2.2745,2.2696,2.2671,2.2584,2.2562,2.2542,2.2431,2.2407,2.2356,2.2282,2.2274,2.2267,2.2233,2.2279,2.2248,2.2259,2.2255,2.2249,2.2262,2.2274,2.2116,2.2116,2.2115,0,0,2.2988,2.2937,2.2937,2.2889,2.2816,2.2754,2.2754,2.2663,2.2625,2.26,2.2516,2.249,2.2425,2.2376,2.2342,2.2417,2.2353,2.2406,2.2476,2.2475,2.2486,2.2495,2.252,2.2531,2.241,2.241,2.241,0,2.3068,2.303,2.2944,2.2927,2.2896,2.2797,2.2795,2.2752,2.2669,2.2648,2.2613,2.2529,2.2472,2.245,2.2469,2.2446,2.2441,2.2416,2.2492,2.25,2.2507,2.253,2.254,2.2417,2.2416,2.2415,2.2415,0,2.3132,2.3106,2.3115,2.3039,2.3008,2.2999,2.291,2.2889,2.2833,2.2775,2.275,2.2679,2.262,2.2611,2.2555,2.2581,2.2562,2.2511,2.2448,2.2529,2.2549,2.2557,2.2427,2.2424,2.2422,2.242,0,0,2.33,2.3177,2.3182,2.3145,2.3057,2.3035,2.3021,2.2966,2.2949,2.2895,2.2878,2.2826,2.2778,2.274,2.2678,2.2677,2.2738,2.2624,2.2621,2.2647,2.276,2.2798,2.281,2.2696,2.2698,2.2699,2.2765,0,2.3377,2.3348,2.327,2.3263,2.3238,2.3143,2.313,2.3074,2.3018,2.2987,2.2924,2.2888,2.2828,2.2805,2.2799,2.2732,2.2759,2.2726,2.2678,2.2677,2.2698,2.282,2.2861,2.2927,2.2773,2.2774,2.2775,0,2.3463,2.3416,2.3408,2.3321,2.3307,2.3297,2.324,2.3212,2.3145,2.3104,2.3063,2.2995,2.2972,2.2915,2.2881,2.2861,2.2836,2.28,2.2801,2.2792,2.273,2.2813,2.2946,2.2956,2.2786,2.2785,2.2784,0,2.3585,2.352,2.3506,2.3478,2.3377,2.3372,2.3329,2.326,2.3231,2.3181,2.3161,2.3108,2.3078,2.3038,2.2956,2.2923,2.2931,2.2867,2.2894,2.2897,2.2899,2.29,2.3029,2.2886,2.2886,2.2886,2.2886,0,2.3678,2.3676,2.356,2.3551,2.3546,2.3456,2.3452,2.34,2.3339,2.3317,2.3232,2.3213,2.3107,2.3075,2.301,2.2991,2.2979,2.2944,2.2926,2.295,2.2955,2.2932,2.2925,2.2889,2.2888,2.2888,2.2887,0,2.3813,2.3735,2.3714,2.362,2.3596,2.3596,2.3514,2.3501,2.3441,2.3415,2.3403,2.3308,2.3265,2.3181,2.3114,2.3071,2.3066,2.3036,2.3089,2.3078,2.3109,2.3107,2.3227,2.3238,2.3091,2.3092,2.3094,0,2.3877,2.3874,2.378,2.376,2.3721,2.369,2.3661,2.3572,2.3545,2.3469,2.3464,2.3416,2.3372,2.3309,2.3232,2.318,2.3148,2.3193,2.3139,2.3164,2.3146,2.3147,2.3146,2.3205,2.3207,2.3209,2.321,0,2.3998,2.396,2.3923,2.3872,2.3841,2.3796,2.3746,2.3734,2.3633,2.3607,2.3564,2.353,2.3463,2.3415,2.3352,2.3305,2.324,2.3229,2.3232,2.3256,2.3286,2.3268,2.3121,2.3226,2.3224,2.3223,2.3222,2.3222,2.4098,2.409,2.4024,2.3984,2.3938,2.3894,2.3877,2.3816,2.3779,2.3719,2.3668,2.3629,2.356,2.347,2.3427,2.3393,2.3362,2.3367,2.3368,2.337,2.338,2.3293,2.3382,2.3381,2.3381,2.338,2.338,0,2.4214,2.4166,2.4132,2.4066,2.4035,2.3979,2.3922,2.3899,2.3866,2.3809,2.3769,2.3718,2.3671,2.3592,2.3538,2.3526,2.3495,2.3515,2.3514,2.3503,2.3412,2.3414,2.3541,2.3541,2.3541,2.3541,2.3541,2.3541,2.427,2.4254,2.4208,2.4167,2.4119,2.4082,2.4053,2.4011,2.3965,2.3914,2.3875,2.3825,2.3757,2.3698,2.3652,2.3629,2.3612,2.3642,2.361,2.3525,2.351,2.3496,2.3497,2.3639,2.3639,2.3703,2.3704,2.3705]}]]